C/2020 M5 ( ATLAS )

Japanese version
Home page
Updated on September 11, 2022

---------------------------------------------------------------------

* Profile

Discovery Date June 30, 2020
Magnitude 19.4 mag
Discoverer Asteroid Terrestrial-Impact Last Alert System (ATLAS) search program

* Pictures

* Orbital Elements

Epoch 2022 Aug. 9.0 TT = JDT 2459800.5
T 2021 Aug. 19.86932 TT                                 Rudenko
q   3.0039635            (2000.0)            P               Q
z  -0.0001248      Peri.  126.32802     -0.59301054     -0.79339619
 +/-0.0000002      Node   352.09372     -0.28638239     +0.36723362
e   1.0003749      Incl.   93.22507     +0.75254477     -0.48545027
From 1601 observations 2019 Aug. 10-2022 June 21, mean residual 0".5.

* Finding Charts

* Magnitudes Graph

        m1 = 5.0 + 5 log d + 15.0 log r(t - 70)

---------------------------------------------------------------------

The orbital elements are published on M.P.E.C. 2022-R139.
The charts are made with StellaNavigator Ver.10 (AstroArts).
The magnitudes graphs are made with Comet for Windows.

---------------------------------------------------------------------

Copyright(C) Seiichi Yoshida (comet@aerith.net). All rights reserved.